TimeCST,TemperatureF,Dew PointF,Humidity,Sea Level PressureIn,VisibilityMPH,Wind Direction,Wind SpeedMPH,Gust SpeedMPH,PrecipitationIn,Events,Conditions,WindDirDegrees,DateUTC
12:15 AM,3.2,-2.2,78,30.27,10.0,WNW,3.5,-,N/A,,Clear,290,2013-01-26 06:15:00
12:35 AM,3.2,-2.2,78,30.26,10.0,NW,4.6,-,N/A,,Clear,320,2013-01-26 06:35:00
12:55 AM,3.2,-2.2,78,30.26,10.0,NNW,3.5,-,N/A,,Clear,330,2013-01-26 06:55:00
1:15 AM,3.2,-4.0,72,30.26,10.0,NNW,4.6,-,N/A,,Clear,330,2013-01-26 07:15:00
1:35 AM,3.2,-4.0,72,30.26,10.0,North,8.1,-,N/A,,Clear,360,2013-01-26 07:35:00
1:55 AM,3.2,-4.0,72,30.26,10.0,North,6.9,-,N/A,,Clear,360,2013-01-26 07:55:00
2:15 AM,3.2,-4.0,72,30.27,10.0,North,5.8,-,N/A,,Clear,350,2013-01-26 08:15:00
2:35 AM,3.2,-4.0,72,30.27,10.0,NNW,4.6,-,N/A,,Clear,340,2013-01-26 08:35:00
2:55 AM,3.2,-4.0,72,30.28,10.0,NNW,4.6,-,N/A,,Clear,330,2013-01-26 08:55:00
3:15 AM,3.2,-4.0,72,30.29,10.0,NW,3.5,-,N/A,,Clear,320,2013-01-26 09:15:00
3:35 AM,3.2,-4.0,72,30.29,10.0,Calm,Calm,-,N/A,,Clear,0,2013-01-26 09:35:00
3:55 AM,3.2,-4.0,72,30.29,10.0,North,3.5,-,N/A,,Clear,350,2013-01-26 09:55:00
4:15 AM,1.4,-4.0,78,30.28,10.0,Calm,Calm,-,N/A,,Clear,0,2013-01-26 10:15:00
4:35 AM,1.4,-4.0,78,30.27,10.0,Calm,Calm,-,N/A,,Clear,0,2013-01-26 10:35:00
4:55 AM,1.4,-4.0,78,30.27,10.0,Calm,Calm,-,N/A,,Clear,0,2013-01-26 10:55:00
5:15 AM,1.4,-4.0,78,30.26,10.0,Calm,Calm,-,N/A,,Clear,0,2013-01-26 11:15:00
5:35 AM,1.4,-4.0,78,30.27,10.0,Calm,Calm,-,N/A,,Clear,0,2013-01-26 11:35:00
5:55 AM,1.4,-4.0,78,30.26,10.0,Calm,Calm,-,N/A,,Clear,0,2013-01-26 11:55:00
6:15 AM,1.4,-4.0,78,30.28,10.0,Calm,Calm,-,N/A,,Clear,0,2013-01-26 12:15:00
6:35 AM,1.4,-4.0,78,30.29,10.0,Calm,Calm,-,N/A,,Clear,0,2013-01-26 12:35:00
6:55 AM,1.4,-4.0,78,30.29,10.0,Calm,Calm,-,N/A,,Clear,0,2013-01-26 12:55:00
7:15 AM,1.4,-4.0,78,30.29,10.0,Calm,Calm,-,N/A,,Clear,0,2013-01-26 13:15:00
7:35 AM,1.4,-4.0,78,30.28,10.0,SE,4.6,-,N/A,,Clear,140,2013-01-26 13:35:00
7:55 AM,1.4,-4.0,78,30.28,10.0,Calm,Calm,-,N/A,,Clear,0,2013-01-26 13:55:00
8:15 AM,3.2,-4.0,72,30.29,10.0,Calm,Calm,-,N/A,,Clear,0,2013-01-26 14:15:00
8:35 AM,5.0,-0.4,78,30.29,10.0,East,5.8,-,N/A,,Clear,100,2013-01-26 14:35:00
8:55 AM,8.6,-0.4,67,30.29,10.0,ESE,8.1,-,N/A,,Clear,110,2013-01-26 14:55:00
9:15 AM,8.6,1.4,73,30.29,10.0,SE,8.1,-,N/A,,Clear,130,2013-01-26 15:15:00
9:35 AM,10.4,3.2,73,30.29,10.0,SE,9.2,-,N/A,,Clear,130,2013-01-26 15:35:00
9:55 AM,12.2,3.2,67,30.29,10.0,SE,10.4,-,N/A,,Clear,130,2013-01-26 15:55:00
10:15 AM,14.0,3.2,62,30.28,10.0,SE,11.5,-,N/A,,Clear,130,2013-01-26 16:15:00
10:35 AM,14.0,3.2,62,30.30,10.0,SE,10.4,-,N/A,,Scattered Clouds,130,2013-01-26 16:35:00
10:55 AM,15.8,3.2,58,30.29,10.0,SE,12.7,-,N/A,,Mostly Cloudy,130,2013-01-26 16:55:00
11:15 AM,17.6,3.2,53,30.28,10.0,SE,13.8,-,N/A,,Scattered Clouds,140,2013-01-26 17:15:00
11:35 AM,17.6,3.2,53,30.26,10.0,SE,15.0,-,N/A,,Mostly Cloudy,140,2013-01-26 17:35:00
11:55 AM,17.6,3.2,53,30.26,10.0,SE,16.1,-,N/A,,Overcast,140,2013-01-26 17:55:00
12:15 PM,19.4,3.2,49,30.25,10.0,SE,12.7,-,N/A,,Overcast,140,2013-01-26 18:15:00
12:35 PM,19.4,5.0,54,30.23,10.0,SE,15.0,19.6,N/A,,Overcast,140,2013-01-26 18:35:00
12:55 PM,21.2,5.0,50,30.22,10.0,SSE,15.0,-,N/A,,Overcast,150,2013-01-26 18:55:00
1:15 PM,23.0,5.0,46,30.21,10.0,SE,15.0,-,N/A,,Overcast,140,2013-01-26 19:15:00
1:35 PM,23.0,5.0,46,30.20,10.0,SSE,15.0,20.7,N/A,,Overcast,150,2013-01-26 19:35:00
1:55 PM,23.0,5.0,46,30.19,10.0,SSE,15.0,20.7,N/A,,Overcast,150,2013-01-26 19:55:00
2:15 PM,24.8,5.0,43,30.18,10.0,SE,15.0,-,N/A,,Overcast,140,2013-01-26 20:15:00
2:35 PM,26.6,5.0,40,30.17,10.0,SE,16.1,21.9,N/A,,Overcast,140,2013-01-26 20:35:00
2:55 PM,26.6,5.0,40,30.17,10.0,SE,17.3,-,N/A,,Overcast,140,2013-01-26 20:55:00
3:15 PM,26.6,5.0,40,30.16,10.0,SE,16.1,21.9,N/A,,Overcast,140,2013-01-26 21:15:00
3:35 PM,26.6,5.0,40,30.15,10.0,SE,17.3,-,N/A,,Overcast,130,2013-01-26 21:35:00
3:55 PM,26.6,6.8,43,30.15,10.0,SE,12.7,-,N/A,,Overcast,130,2013-01-26 21:55:00
4:15 PM,26.6,6.8,43,30.15,10.0,SE,13.8,19.6,N/A,,Overcast,130,2013-01-26 22:15:00
4:35 PM,26.6,6.8,43,30.14,10.0,SE,12.7,-,N/A,,Overcast,130,2013-01-26 22:35:00
4:55 PM,26.6,8.6,47,30.13,10.0,SE,12.7,-,N/A,,Overcast,130,2013-01-26 22:55:00
5:15 PM,26.6,8.6,47,30.12,10.0,SE,16.1,-,N/A,,Overcast,140,2013-01-26 23:15:00
5:35 PM,26.6,8.6,47,30.12,10.0,SE,13.8,17.3,N/A,,Scattered Clouds,130,2013-01-26 23:35:00
5:55 PM,26.6,8.6,47,30.12,10.0,SE,16.1,19.6,N/A,,Mostly Cloudy,130,2013-01-26 23:55:00
6:15 PM,26.6,8.6,47,30.12,10.0,SE,16.1,23.0,N/A,,Overcast,140,2013-01-27 00:15:00
6:35 PM,26.6,8.6,47,30.12,10.0,SE,17.3,-,N/A,,Overcast,130,2013-01-27 00:35:00
6:55 PM,26.6,8.6,47,30.11,10.0,SE,16.1,-,N/A,,Overcast,140,2013-01-27 00:55:00
7:15 PM,26.6,8.6,47,30.12,10.0,SE,17.3,-,N/A,,Overcast,140,2013-01-27 01:15:00
7:35 PM,28.4,8.6,43,30.12,10.0,SE,13.8,-,N/A,,Overcast,140,2013-01-27 01:35:00
7:55 PM,28.4,8.6,43,30.11,10.0,SE,17.3,-,N/A,,Overcast,140,2013-01-27 01:55:00
8:15 PM,28.4,8.6,43,30.11,10.0,SE,17.3,23.0,N/A,,Overcast,140,2013-01-27 02:15:00
8:35 PM,28.4,8.6,43,30.11,10.0,SE,17.3,20.7,N/A,,Mostly Cloudy,140,2013-01-27 02:35:00
8:55 PM,28.4,10.4,47,30.11,10.0,SE,18.4,21.9,N/A,,Scattered Clouds,140,2013-01-27 02:55:00
9:15 PM,28.4,10.4,47,30.12,10.0,SSE,16.1,-,N/A,,Scattered Clouds,150,2013-01-27 03:15:00
9:35 PM,28.4,10.4,47,30.12,10.0,SSE,16.1,-,N/A,,Overcast,150,2013-01-27 03:35:00
9:55 PM,28.4,10.4,47,30.11,10.0,SSE,15.0,-,N/A,,Overcast,150,2013-01-27 03:55:00
10:15 PM,28.4,10.4,47,30.11,10.0,SSE,16.1,-,N/A,,Overcast,150,2013-01-27 04:15:00
10:35 PM,28.4,10.4,47,30.10,10.0,SSE,19.6,-,N/A,,Overcast,150,2013-01-27 04:35:00
10:55 PM,28.4,10.4,47,30.10,10.0,SSE,17.3,24.2,N/A,,Overcast,150,2013-01-27 04:55:00
11:15 PM,26.6,10.4,51,30.10,10.0,SE,16.1,-,N/A,,Overcast,140,2013-01-27 05:15:00
11:35 PM,26.6,12.2,55,30.10,10.0,SE,16.1,19.6,N/A,,Overcast,140,2013-01-27 05:35:00
11:55 PM,26.6,12.2,55,30.10,10.0,SE,16.1,-,N/A,,Overcast,140,2013-01-27 05:55:00